TimeCST,TemperatureF,Dew PointF,Humidity,Sea Level PressureIn,VisibilityMPH,Wind Direction,Wind SpeedMPH,Gust SpeedMPH,PrecipitationIn,Events,Conditions,WindDirDegrees,DateUTC
12:15 AM,-4.0,-11.2,71,30.13,10.0,NNW,17.3,-,N/A,,Partly Cloudy,330,2013-01-20 06:15:00
12:35 AM,-5.8,-9.4,84,30.13,10.0,NW,20.7,-,N/A,,Partly Cloudy,320,2013-01-20 06:35:00
12:55 AM,-5.8,-9.4,84,30.15,10.0,NW,12.7,-,N/A,,Scattered Clouds,320,2013-01-20 06:55:00
1:15 AM,-5.8,-11.2,77,30.15,10.0,NW,13.8,-,N/A,,Partly Cloudy,320,2013-01-20 07:15:00
1:35 AM,-5.8,-11.2,77,30.16,10.0,NW,12.7,20.7,N/A,,Scattered Clouds,310,2013-01-20 07:35:00
1:55 AM,-7.6,-11.2,84,30.17,10.0,NW,9.2,18.4,N/A,,Mostly Cloudy,310,2013-01-20 07:55:00
2:15 AM,-7.6,-11.2,84,30.17,10.0,NNW,10.4,-,N/A,,Mostly Cloudy,330,2013-01-20 08:15:00
2:35 AM,-7.6,-13.0,77,30.18,10.0,WNW,6.9,-,N/A,,Partly Cloudy,300,2013-01-20 08:35:00
2:55 AM,-7.6,-14.8,71,30.19,10.0,WNW,10.4,-,N/A,,Partly Cloudy,300,2013-01-20 08:55:00
3:15 AM,-9.4,-13.0,84,30.19,10.0,WNW,9.2,-,N/A,,Partly Cloudy,300,2013-01-20 09:15:00
3:35 AM,-9.4,-14.8,77,30.20,10.0,WNW,9.2,-,N/A,,Partly Cloudy,300,2013-01-20 09:35:00
3:55 AM,-9.4,-14.8,77,30.20,10.0,WNW,12.7,-,N/A,,Mostly Cloudy,300,2013-01-20 09:55:00
4:15 AM,-9.4,-14.8,77,30.21,10.0,WNW,9.2,-,N/A,,Scattered Clouds,290,2013-01-20 10:15:00
4:35 AM,-11.2,-14.8,84,30.22,5.0,WNW,11.5,-,N/A,,Mostly Cloudy,300,2013-01-20 10:35:00
4:55 AM,-11.2,-14.8,84,30.22,5.0,WNW,10.4,-,N/A,,Overcast,290,2013-01-20 10:55:00
5:15 AM,-11.2,-16.6,77,30.21,3.0,WNW,10.4,16.1,N/A,,Overcast,300,2013-01-20 11:15:00
5:35 AM,-11.2,-16.6,77,30.22,4.0,WNW,9.2,-,N/A,,Mostly Cloudy,290,2013-01-20 11:35:00
5:55 AM,-11.2,-16.6,77,30.22,6.0,WNW,6.9,-,N/A,,Partly Cloudy,300,2013-01-20 11:55:00
6:15 AM,-11.2,-16.6,77,30.22,4.0,WNW,8.1,-,N/A,,Scattered Clouds,300,2013-01-20 12:15:00
6:35 AM,-13.0,-16.6,84,30.22,5.0,WNW,6.9,-,N/A,,Scattered Clouds,290,2013-01-20 12:35:00
6:55 AM,-13.0,-16.6,84,30.22,5.0,WNW,6.9,-,N/A,,Scattered Clouds,290,2013-01-20 12:55:00
7:15 AM,-13.0,-18.4,77,30.22,6.0,WNW,6.9,-,N/A,,Clear,290,2013-01-20 13:15:00
7:35 AM,-14.8,-18.4,84,30.22,10.0,NW,4.6,-,N/A,,Clear,310,2013-01-20 13:35:00
7:55 AM,-14.8,-18.4,84,30.22,10.0,WNW,4.6,-,N/A,,Clear,300,2013-01-20 13:55:00
8:15 AM,-14.8,-18.4,84,30.23,10.0,WNW,5.8,-,N/A,,Clear,290,2013-01-20 14:15:00
8:35 AM,-14.8,-16.6,92,30.23,10.0,WNW,3.5,-,N/A,,Scattered Clouds,300,2013-01-20 14:35:00
8:55 AM,-13.0,-16.6,84,30.25,10.0,West,8.1,-,N/A,,Scattered Clouds,280,2013-01-20 14:55:00
9:15 AM,-13.0,-16.6,84,30.25,5.0,West,6.9,-,N/A,,Mostly Cloudy,280,2013-01-20 15:15:00
9:35 AM,-13.0,-14.8,92,30.25,7.0,West,5.8,-,N/A,,Overcast,280,2013-01-20 15:35:00
9:55 AM,-11.2,-16.6,77,30.26,9.0,WNW,6.9,-,N/A,,Overcast,290,2013-01-20 15:55:00
10:15 AM,-11.2,-16.6,77,30.26,2.0,WNW,9.2,-,N/A,,Overcast,290,2013-01-20 16:15:00
10:35 AM,-11.2,-14.8,84,30.26,1.2,WNW,5.8,-,N/A,,Overcast,290,2013-01-20 16:35:00
10:55 AM,-9.4,-14.8,77,30.25,1.2,West,5.8,-,N/A,,Overcast,280,2013-01-20 16:55:00
11:15 AM,-9.4,-14.8,77,30.25,1.8,WNW,8.1,-,N/A,,Overcast,290,2013-01-20 17:15:00
11:35 AM,-9.4,-11.2,92,30.25,1.8,WNW,8.1,-,N/A,,Overcast,300,2013-01-20 17:35:00
11:55 AM,-7.6,-14.8,71,30.25,1.8,WNW,10.4,-,N/A,,Overcast,290,2013-01-20 17:55:00
12:15 PM,-7.6,-11.2,84,30.23,1.8,NW,8.1,-,N/A,,Overcast,310,2013-01-20 18:15:00
12:35 PM,-5.8,-11.2,77,30.23,1.8,WNW,10.4,-,N/A,,Overcast,300,2013-01-20 18:35:00
12:55 PM,-5.8,-9.4,84,30.22,3.0,WNW,6.9,-,N/A,,Overcast,290,2013-01-20 18:55:00
1:15 PM,-4.0,-11.2,71,30.21,1.5,WNW,9.2,-,N/A,,Overcast,290,2013-01-20 19:15:00
1:35 PM,-2.2,-9.4,71,30.20,1.8,NW,10.4,-,N/A,,Overcast,310,2013-01-20 19:35:00
1:55 PM,-2.2,-11.2,66,30.20,4.0,West,12.7,-,N/A,,Overcast,280,2013-01-20 19:55:00
2:15 PM,-2.2,-11.2,66,30.20,6.0,WNW,11.5,-,N/A,,Mostly Cloudy,300,2013-01-20 20:15:00
2:35 PM,-2.2,-9.4,71,30.19,1.2,NW,9.2,-,N/A,,Overcast,320,2013-01-20 20:35:00
2:55 PM,-2.2,-7.6,78,30.19,1.0,WNW,8.1,-,N/A,,Overcast,300,2013-01-20 20:55:00
3:15 PM,-2.2,-9.4,71,30.19,5.0,West,9.2,-,N/A,,Overcast,280,2013-01-20 21:15:00
3:35 PM,-2.2,-9.4,71,30.18,3.0,WNW,6.9,-,N/A,,Overcast,290,2013-01-20 21:35:00
3:55 PM,-2.2,-9.4,71,30.17,2.5,WNW,9.2,-,N/A,,Overcast,290,2013-01-20 21:55:00
4:15 PM,-2.2,-7.6,78,30.17,3.0,WNW,8.1,-,N/A,,Overcast,300,2013-01-20 22:15:00
4:35 PM,-2.2,-9.4,71,30.17,6.0,WNW,9.2,-,N/A,,Mostly Cloudy,290,2013-01-20 22:35:00
4:55 PM,-2.2,-9.4,71,30.17,10.0,WNW,10.4,-,N/A,,Overcast,300,2013-01-20 22:55:00
5:15 PM,-4.0,-13.0,65,30.17,10.0,WNW,12.7,19.6,N/A,,Mostly Cloudy,300,2013-01-20 23:15:00
5:35 PM,-4.0,-13.0,65,30.16,10.0,WNW,9.2,-,N/A,,Clear,290,2013-01-20 23:35:00
5:55 PM,-4.0,-11.2,71,30.16,10.0,WNW,12.7,-,N/A,,Partly Cloudy,290,2013-01-20 23:55:00
6:15 PM,-5.8,-11.2,77,30.16,10.0,WNW,10.4,-,N/A,,Mostly Cloudy,290,2013-01-21 00:15:00
6:35 PM,-5.8,-13.0,71,30.16,10.0,WNW,11.5,18.4,N/A,,Overcast,290,2013-01-21 00:35:00
6:55 PM,-5.8,-13.0,71,30.16,10.0,WNW,13.8,-,N/A,,Overcast,290,2013-01-21 00:55:00
7:15 PM,-5.8,-14.8,65,30.16,10.0,WNW,10.4,19.6,N/A,,Overcast,290,2013-01-21 01:15:00
7:35 PM,-7.6,-13.0,77,30.16,10.0,WNW,10.4,-,N/A,,Overcast,290,2013-01-21 01:35:00
7:55 PM,-7.6,-14.8,71,30.16,10.0,West,15.0,18.4,N/A,,Overcast,280,2013-01-21 01:55:00
8:15 PM,-7.6,-14.8,71,30.16,5.0,WNW,10.4,18.4,N/A,,Overcast,290,2013-01-21 02:15:00
8:35 PM,-7.6,-14.8,71,30.16,2.5,WNW,19.6,27.6,N/A,,Overcast,300,2013-01-21 02:35:00
8:55 PM,-9.4,-14.8,77,30.16,4.0,WNW,18.4,26.5,N/A,,Overcast,290,2013-01-21 02:55:00
9:15 PM,-9.4,-16.6,71,30.15,7.0,NW,15.0,23.0,N/A,,Overcast,310,2013-01-21 03:15:00
9:35 PM,-9.4,-16.6,71,30.16,4.0,NW,16.1,26.5,N/A,,Overcast,310,2013-01-21 03:35:00
9:55 PM,-11.2,-18.4,70,30.15,10.0,NW,17.3,23.0,N/A,,Scattered Clouds,310,2013-01-21 03:55:00
10:15 PM,-11.2,-18.4,70,30.16,10.0,NW,17.3,23.0,N/A,,Clear,310,2013-01-21 04:15:00
10:35 PM,-11.2,-18.4,70,30.16,10.0,NW,17.3,21.9,N/A,,Clear,310,2013-01-21 04:35:00
10:55 PM,-11.2,-20.2,64,30.16,10.0,NW,11.5,23.0,N/A,,Clear,310,2013-01-21 04:55:00
11:15 PM,-13.0,-20.2,70,30.16,10.0,NW,15.0,21.9,N/A,,Clear,310,2013-01-21 05:15:00
11:35 PM,-13.0,-20.2,70,30.17,10.0,NW,15.0,21.9,N/A,,Scattered Clouds,310,2013-01-21 05:35:00
11:55 PM,-14.8,-20.2,77,30.16,10.0,NW,16.1,25.3,N/A,,Mostly Cloudy,310,2013-01-21 05:55:00